STARLINK-32244, 60411

Orbit data source: Space-Track

STARLINK-32244, 60411 is a payload satellite owned by SpaceX/Seattle (US) in LEO that was launched on Sat, 10 Aug 2024 UTC via an FALCON 9 launch vehicle from the Air Force Eastern Test Range (AFETR). Payloads include a variety of satellites, spacecraft, and rockets equipped with specific instruments for various scientific and technological missions. These include communications satellites like Starlink; space stations such as the ISS; scientific satellites like the Hubble; Earth observation satellites from companies like Planet Labs, Umbra, and HawkEye 360; GPS; miniature CubeSats for education and research; and military/defense satellites.

Loading next visibility...
STARLINK-32244 details
Identifier
60411, 2024-141P
Orbit
LEO
Last TLE update23 hours ago
Origin
Flag of USSpaceX/Seattle (US)
ManufacturerSpaceX/Seattle
MissionOperational spacecraft
Bus & MotorSTARLINK V2M, Unknown motor
Mass730 kg wet, ~700 kg dry
Launch date (UTC)
2024-08-10 (5 months ago)
Launch vehicle
FALCON 9
Launch site
Air Force Eastern Test Range (AFETR)
Object type
Payload
Rocket body
Debris
Shape & HBRUnknown
Radar Cross SectionLarge (>1 m²)

Expand to show TLE details & history

TLE from 23 hours ago
0 STARLINK-32244
1 60411U 24141P   25014.34243636 -.00000447  00000-0 -29444-5 0  9992
2 60411  53.1617  30.6273 0001568  91.2591 268.8589 15.30196720 25361
Epoch: 2025-01-14T08:13Z
Definitive object data (Epoch: 2025-01-14T08:13:06.501Z)
Latitude-0.00006°
Longitude153.29966°
Altitude476.146 km
Speed7.629 km/s
True Right ascension02h 02m 30s
True Declination0° 00' 00"
Sunlit
Object was in daylight at TLE epoch
Visualization TLE readout
Latitude3.31694°
Longitude-33.57137°
Altitude475.599 km
Speed7.63 km/s
Apparent Right ascension15h 57m 29s
Apparent Declination-23° 36' 33"
Sunlit
Object is in daylight
Visualization observer readout
Local Sidereal Time07:35:11
Azimuth87.323° E
Elevation-41.745°
Doppler factor1
Orbital elements
Apogee altitude476.556 km
Perigee altitude474.406 km
Semi-major axis6,853.618 km
Eccentricity0.0001568
Inclination53.1617°
RAAN30.6273°
Arg. of periapsis91.2591°
True anomaly268.84094°
Mean anomaly268.8589°
Eccentric anomaly268.84992°
Mean motion3.82528 °/min
BSTAR-0.0000029444
Orbital period94.11 mins
Loading maneuver chart data...
Loading historical data...
Loading historical data...
Loading historical data...
Loading historical data...
Loading historical data...
Loading historical data...
Loading historical data...

STARLINK-32244 Visibility forecast

Observer location: undefined°, undefined

Span
Click to sort rows by Start time (UTC) header in descending order
Start Az.
Max El. time (UTC)
Max El. Az.
Max El.
End time (UTC)
End Az.
5 mins2025-01-15 09:47:44.278Z336.884° NNW2025-01-15 09:49:44.278Z45.23° ENE33.275°2025-01-15 09:52:44.278Z104.855° ESE
4 mins2025-01-15 11:25:44.278Z264.683° W2025-01-15 11:26:44.278Z242.931° WSW20.865°2025-01-15 11:29:44.278Z180.875° SSW
5 mins2025-01-16 02:42:44.278Z195.299° SSW2025-01-16 02:44:44.278Z149.181° SSE31.575°2025-01-16 02:47:44.278Z69.196° E
4 mins2025-01-16 04:21:44.278Z294.152° NW2025-01-16 04:22:44.278Z320.437° NNW25.089°2025-01-16 04:25:44.278Z27.313° NE
|